TimeCDT,TemperatureF,Dew PointF,Humidity,Sea Level PressureIn,VisibilityMPH,Wind Direction,Wind SpeedMPH,Gust SpeedMPH,PrecipitationIn,Events,Conditions,WindDirDegrees,DateUTC
12:15 AM,58.8,58.5,99,30.10,5.0,Calm,Calm,-,N/A,,Clear,0,2012-10-04 05:15:00
12:55 AM,58.5,58.3,99,30.11,10.0,Calm,Calm,-,N/A,,Clear,0,2012-10-04 05:55:00
1:15 AM,58.3,58.1,99,30.11,7.0,Calm,Calm,-,N/A,,Clear,0,2012-10-04 06:15:00
1:35 AM,58.3,58.1,99,30.11,10.0,Calm,Calm,-,N/A,,Clear,0,2012-10-04 06:35:00
1:55 AM,58.1,57.7,99,30.11,10.0,Calm,Calm,-,N/A,,Clear,0,2012-10-04 06:55:00
2:15 AM,57.7,57.6,99,30.11,7.0,Calm,Calm,-,N/A,,Clear,0,2012-10-04 07:15:00
2:35 AM,57.7,57.7,100,30.11,7.0,Calm,Calm,-,N/A,,Clear,0,2012-10-04 07:35:00
2:55 AM,57.2,56.8,99,30.11,5.0,Calm,Calm,-,N/A,,Clear,0,2012-10-04 07:55:00
3:15 AM,57.2,57.2,100,30.11,4.0,Calm,Calm,-,N/A,,Clear,0,2012-10-04 08:15:00
3:35 AM,56.8,56.8,100,30.11,5.0,Calm,Calm,-,N/A,,Clear,0,2012-10-04 08:35:00
3:55 AM,56.7,56.7,100,30.12,5.0,Calm,Calm,-,N/A,,Clear,0,2012-10-04 08:55:00
4:15 AM,56.5,56.5,100,30.13,5.0,Calm,Calm,-,N/A,,Clear,0,2012-10-04 09:15:00
4:35 AM,55.9,55.9,100,30.14,5.0,Calm,Calm,-,N/A,,Clear,0,2012-10-04 09:35:00
4:55 AM,55.4,55.4,100,30.14,2.5,Calm,Calm,-,N/A,,Clear,0,2012-10-04 09:55:00
5:15 AM,55.2,55.2,100,30.15,7.0,Calm,Calm,-,N/A,,Clear,0,2012-10-04 10:15:00
5:35 AM,55.0,55.0,100,30.15,7.0,Calm,Calm,-,N/A,,Clear,0,2012-10-04 10:35:00
5:55 AM,54.9,54.7,99,30.15,5.0,Calm,Calm,-,N/A,,Scattered Clouds,0,2012-10-04 10:55:00
6:15 AM,54.5,54.5,100,30.16,4.0,Calm,Calm,-,N/A,,Scattered Clouds,0,2012-10-04 11:15:00
6:35 AM,54.5,54.5,100,30.16,5.0,Calm,Calm,-,N/A,,Clear,0,2012-10-04 11:35:00
6:55 AM,54.5,54.5,100,30.16,4.0,Calm,Calm,-,N/A,,Clear,0,2012-10-04 11:55:00
7:35 AM,54.7,54.7,100,30.17,4.0,Calm,Calm,-,N/A,,Clear,0,2012-10-04 12:35:00
7:55 AM,57.2,57.2,100,30.18,2.5,Calm,Calm,-,N/A,,Clear,0,2012-10-04 12:55:00
8:15 AM,59.7,59.7,100,30.19,4.0,Calm,Calm,-,N/A,,Clear,0,2012-10-04 13:15:00
8:35 AM,62.6,61.0,94,30.19,7.0,Calm,Calm,-,N/A,,Scattered Clouds,0,2012-10-04 13:35:00
8:55 AM,64.6,62.6,93,30.19,7.0,ESE,4.6,-,N/A,,Scattered Clouds,120,2012-10-04 13:55:00
9:15 AM,66.6,63.7,90,30.20,7.0,ESE,4.6,-,N/A,,Clear,120,2012-10-04 14:15:00
9:35 AM,68.9,64.9,87,30.20,7.0,ESE,3.5,-,N/A,,Clear,120,2012-10-04 14:35:00
9:55 AM,71.1,66.9,87,30.21,7.0,SE,8.1,-,N/A,,Scattered Clouds,140,2012-10-04 14:55:00
10:15 AM,72.7,67.5,84,30.21,10.0,SE,4.6,-,N/A,,Clear,140,2012-10-04 15:15:00
10:35 AM,74.7,67.6,79,30.21,10.0,SE,5.8,-,N/A,,Clear,130,2012-10-04 15:35:00
10:55 AM,75.9,66.7,73,30.21,10.0,SE,8.1,-,N/A,,Clear,130,2012-10-04 15:55:00
11:15 AM,78.1,66.4,67,30.21,10.0,SSE,5.8,-,N/A,,Clear,160,2012-10-04 16:15:00
11:35 AM,79.2,66.4,65,30.21,10.0,SSE,6.9,-,N/A,,Clear,160,2012-10-04 16:35:00
11:55 AM,79.9,66.9,64,30.21,10.0,SE,8.1,-,N/A,,Scattered Clouds,140,2012-10-04 16:55:00
12:15 PM,81.3,66.7,61,30.20,10.0,ESE,9.2,-,N/A,,Scattered Clouds,120,2012-10-04 17:15:00
12:35 PM,81.7,65.7,58,30.20,10.0,SE,8.1,-,N/A,,Scattered Clouds,140,2012-10-04 17:35:00
12:55 PM,82.6,65.1,55,30.19,10.0,SE,6.9,-,N/A,,Scattered Clouds,140,2012-10-04 17:55:00
1:15 PM,83.5,63.9,51,30.18,10.0,SE,6.9,-,N/A,,Scattered Clouds,130,2012-10-04 18:15:00
1:35 PM,83.5,64.0,52,30.17,10.0,SSE,4.6,-,N/A,,Scattered Clouds,160,2012-10-04 18:35:00
2:15 PM,85.1,63.7,49,30.16,10.0,ESE,4.6,-,N/A,,Mostly Cloudy,110,2012-10-04 19:15:00
2:35 PM,85.6,64.0,48,30.15,10.0,SSE,5.8,-,N/A,,Scattered Clouds,160,2012-10-04 19:35:00
2:55 PM,86.2,62.6,45,30.14,10.0,South,3.5,-,N/A,,Scattered Clouds,190,2012-10-04 19:55:00
3:15 PM,86.2,62.2,45,30.14,10.0,South,3.5,-,N/A,,Scattered Clouds,190,2012-10-04 20:15:00
3:35 PM,86.7,62.1,43,30.14,10.0,Calm,Calm,-,N/A,,Scattered Clouds,0,2012-10-04 20:35:00
3:55 PM,86.9,62.6,44,30.14,10.0,South,5.8,-,N/A,,Scattered Clouds,180,2012-10-04 20:55:00
4:15 PM,87.1,62.4,44,30.13,10.0,Calm,Calm,-,N/A,,Scattered Clouds,0,2012-10-04 21:15:00
4:55 PM,86.0,61.7,44,30.13,10.0,South,4.6,-,N/A,,Scattered Clouds,190,2012-10-04 21:55:00
5:15 PM,85.1,61.5,45,30.12,10.0,South,5.8,-,N/A,,Scattered Clouds,180,2012-10-04 22:15:00
5:55 PM,83.5,62.2,49,30.12,10.0,SSE,5.8,-,N/A,,Clear,150,2012-10-04 22:55:00
6:15 PM,82.0,62.4,51,30.12,10.0,ESE,4.6,-,N/A,,Clear,120,2012-10-04 23:15:00
6:35 PM,79.9,63.0,56,30.12,10.0,SE,3.5,-,N/A,,Clear,130,2012-10-04 23:35:00
6:55 PM,77.9,63.5,61,30.12,10.0,ESE,3.5,-,N/A,,Clear,120,2012-10-04 23:55:00
7:15 PM,73.2,64.9,75,30.12,10.0,Calm,Calm,-,N/A,,Clear,0,2012-10-05 00:15:00
7:35 PM,70.3,66.4,87,30.11,10.0,Calm,Calm,-,N/A,,Clear,0,2012-10-05 00:35:00
8:15 PM,68.7,66.0,91,30.12,10.0,Calm,Calm,-,N/A,,Clear,0,2012-10-05 01:15:00
8:35 PM,67.5,65.7,94,30.12,10.0,Calm,Calm,-,N/A,,Clear,0,2012-10-05 01:35:00
8:55 PM,67.1,66.2,97,30.13,10.0,Calm,Calm,-,N/A,,Clear,0,2012-10-05 01:55:00
9:15 PM,66.7,65.3,95,30.14,10.0,Calm,Calm,-,N/A,,Clear,0,2012-10-05 02:15:00
9:35 PM,66.4,65.3,96,30.14,10.0,Calm,Calm,-,N/A,,Clear,0,2012-10-05 02:35:00
10:15 PM,66.2,64.9,96,30.14,10.0,Calm,Calm,-,N/A,,Clear,0,2012-10-05 03:15:00
10:35 PM,64.8,64.0,98,30.14,10.0,Calm,Calm,-,N/A,,Clear,0,2012-10-05 03:35:00
10:55 PM,64.8,64.0,98,30.14,7.0,Calm,Calm,-,N/A,,Clear,0,2012-10-05 03:55:00
11:15 PM,64.0,63.5,98,30.14,7.0,Calm,Calm,-,N/A,,Clear,0,2012-10-05 04:15:00
11:35 PM,63.7,63.3,99,30.14,7.0,Calm,Calm,-,N/A,,Clear,0,2012-10-05 04:35:00
11:55 PM,63.9,63.7,99,30.14,7.0,Calm,Calm,-,N/A,,Clear,0,2012-10-05 04:55:00